Regional Weather Roundup
Issued by NWS

Home | Current Version | Previous Version | Graphics & Text | Print | Product List | Glossary Off
Versions: 1 2 3 4 5 6 7 8 9 10 11 12 13 14 15 16 17 18 19 20 21 22 23 24 25 26 27 28 29 30 31 32 33 34 35 36 37 38 39 40 41 42 43 44 45 46 47 48 49 50

000
ASUS43 KBIS 312010
RWRND

NORTH DAKOTA REGIONAL WEATHER ROUNDUP
NATIONAL WEATHER SERVICE BISMARCK ND
300 PM CDT MON AUG 31 2015

NOTE: "FAIR" INDICATES FEW OR NO CLOUDS BELOW 12,000 FEET WITH NO
SIGNIFICANT WEATHER AND/OR OBSTRUCTIONS TO VISIBILITY.


NDZ001>003-009>011-017-312100-
NORTHWEST NORTH DAKOTA

CITY           SKY/WX    TMP DP  RH WIND       PRES   REMARKS
WILLISTON      SUNNY     77  37  23 W17       29.86F
MINOT          SUNNY     77  41  27 SW17G26   29.83S
MINOT AFB      SUNNY     79  41  25 W20G25    29.81F
$$

NDZ018>021-031>035-040>046-312100-
SOUTHWEST NORTH DAKOTA

CITY           SKY/WX    TMP DP  RH WIND       PRES   REMARKS
BISMARCK       PTSUNNY   81  49  32 W10       29.88F
DICKINSON      SUNNY     76  36  23 W10G22    29.91F
GARRISON         N/A     76  43  30 W18G25    29.87F
HETTINGER ARPT PTSUNNY   77  41  27 W14       29.95F
$$

NDZ004>008-012>016-024-026-027-054-312100-
NORTHEAST NORTH DAKOTA

CITY           SKY/WX    TMP DP  RH WIND       PRES   REMARKS
GRAND FORKS    PTSUNNY   82  60  47 N5        29.76F
GRND FRKS AFB  PTSUNNY   81  63  54 W8        29.78R
DEVILS LAKE    MOSUNNY   75  52  43 SW14      29.81R
$$

NDZ022-023-025-028>030-036>039-047>053-312100-
SOUTHEAST NORTH DAKOTA

CITY           SKY/WX    TMP DP  RH WIND       PRES   REMARKS
FARGO          MOSUNNY   81  66  60 N10       29.79R
JAMESTOWN      CLOUDY    76  58  53 NW12      29.84R
$$



USA.gov is the U.S. government's official web portal to all federal, state and local government web resources and services.